When you browse on this site, cookies collect data to enhance your experience and personalize the content and advertising you see.
Visit our Privacy Policy to learn more. By continuing to use the site, you agree to this use of cookies and data.
EN

Hourly Weather Quito

Today, 15 July, Wednesday

Time Temperature Precipitation Wind Pressure Humidity
00:00 +11°C° 0 mm 1 mps 622 mmHg 39%
01:00 +10°C° 0 mm 1 mps 621 mmHg 41%
02:00 +9°C° 0 mm 1 mps 621 mmHg 42%
03:00 +8°C° 0 mm 1 mps 621 mmHg 43%
04:00 +8°C° 0 mm 1 mps 621 mmHg 44%
05:00 +7°C° 0 mm 2 mps 621 mmHg 43%
06:00 +8°C° 0 mm 2 mps 622 mmHg 41%
07:00 +8°C° 0 mm 2 mps 623 mmHg 40%
08:00 +12°C° 0 mm 3 mps 624 mmHg 32%
09:00 +15°C° 0 mm 5 mps 625 mmHg 24%
10:00 +20°C° 0 mm 6 mps 626 mmHg 16%
11:00 +21°C° 0 mm 6 mps 626 mmHg 15%
12:00 +23°C° 0 mm 5 mps 626 mmHg 13%
13:00 +26°C° 0 mm 5 mps 626 mmHg 12%
14:00 +26°C° 0 mm 5 mps 625 mmHg 12%
15:00 +26°C° 0 mm 4 mps 625 mmHg 12%
16:00 +26°C° 0 mm 4 mps 624 mmHg 12%
17:00 +21°C° 0 mm 3 mps 624 mmHg 16%
18:00 +18°C° 0 mm 2 mps 623 mmHg 19%
19:00 +15°C° 0 mm 2 mps 623 mmHg 23%
20:00 +14°C° 0 mm 2 mps 623 mmHg 24%
21:00 +12°C° 0 mm 2 mps 623 mmHg 26%
22:00 +10°C° 0 mm 2 mps 623 mmHg 28%
23:00 +9°C° 0 mm 2 mps 623 mmHg 29%

Tomorrow, 16 July, Thursday

Time Temperature Precipitation Wind Pressure Humidity
00:00 +9°C° 0 mm 2 mps 623 mmHg 30%
01:00 +8°C° 0 mm 2 mps 623 mmHg 31%
02:00 +8°C° 0 mm 2 mps 623 mmHg 30%
03:00 +8°C° 0 mm 2 mps 622 mmHg 29%
04:00 +8°C° 0 mm 2 mps 622 mmHg 28%
05:00 +8°C° 0 mm 2 mps 623 mmHg 28%
06:00 +8°C° 0 mm 2 mps 623 mmHg 27%
07:00 +8°C° 0 mm 2 mps 624 mmHg 27%
08:00 +11°C° 0 mm 3 mps 624 mmHg 24%
09:00 +14°C° 0 mm 4 mps 625 mmHg 22%
10:00 +17°C° 0 mm 5 mps 626 mmHg 20%
11:00 +20°C° 0 mm 5 mps 626 mmHg 19%
12:00 +22°C° 0 mm 5 mps 626 mmHg 18%
13:00 +25°C° 0 mm 5 mps 626 mmHg 17%
14:00 +25°C° 0 mm 5 mps 626 mmHg 17%
15:00 +25°C° 0 mm 4 mps 625 mmHg 17%
16:00 +26°C° 0 mm 4 mps 625 mmHg 18%
17:00 +21°C° 0 mm 3 mps 624 mmHg 23%
18:00 +18°C° 0 mm 2 mps 624 mmHg 28%
19:00 +15°C° 0 mm 1 mps 623 mmHg 33%
20:00 +14°C° 0 mm 2 mps 623 mmHg 34%
21:00 +13°C° 0 mm 2 mps 624 mmHg 36%
22:00 +12°C° 0 mm 2 mps 624 mmHg 37%
23:00 +10°C° 0 mm 2 mps 624 mmHg 39%

Day after tomorrow, 17 July, Friday

Time Temperature Precipitation Wind Pressure Humidity
00:00 +9°C° 0 mm 2 mps 623 mmHg 41%
01:00 +8°C° 0 mm 2 mps 623 mmHg 42%
02:00 +8°C° 0 mm 2 mps 623 mmHg 45%
03:00 +7°C° 0 mm 2 mps 622 mmHg 48%
04:00 +7°C° 0 mm 2 mps 622 mmHg 50%
05:00 +7°C° 0 mm 2 mps 623 mmHg 52%
06:00 +7°C° 0 mm 3 mps 623 mmHg 53%
07:00 +7°C° 0 mm 3 mps 624 mmHg 55%
08:00 +10°C° 0 mm 4 mps 624 mmHg 49%
09:00 +13°C° 0 mm 4 mps 625 mmHg 43%
10:00 +17°C° 0 mm 4 mps 626 mmHg 37%
11:00 +19°C° 0 mm 4 mps 626 mmHg 33%
12:00 +21°C° 0 mm 4 mps 626 mmHg 28%
13:00 +23°C° 0 mm 4 mps 625 mmHg 24%
14:00 +23°C° 0 mm 4 mps 625 mmHg 22%
15:00 +24°C° 0 mm 3 mps 624 mmHg 21%
16:00 +24°C° 0 mm 3 mps 624 mmHg 20%
17:00 +20°C° 0 mm 3 mps 623 mmHg 25%
18:00 +17°C° 0 mm 2 mps 623 mmHg 31%
19:00 +14°C° 0 mm 1 mps 622 mmHg 36%
20:00 +13°C° 0 mm 2 mps 622 mmHg 37%
21:00 +12°C° 0 mm 2 mps 622 mmHg 38%
22:00 +9°C° 0 mm 2 mps 622 mmHg 39%
23:00 +9°C° 0 mm 2 mps 622 mmHg 42%

18 July, Saturday

Time Temperature Precipitation Wind Pressure Humidity
00:00 +8°C° 0 mm 2 mps 622 mmHg 46%
01:00 +7°C° 0 mm 2 mps 622 mmHg 49%
02:00 +6°C° 0 mm 2 mps 622 mmHg 52%
03:00 +6°C° 0 mm 2 mps 621 mmHg 55%
04:00 +5°C° 0 mm 2 mps 621 mmHg 58%
05:00 +5°C° 0 mm 2 mps 622 mmHg 57%
06:00 +6°C° 0 mm 2 mps 622 mmHg 55%
07:00 +6°C° 0 mm 2 mps 623 mmHg 54%
08:00 +9°C° 0 mm 3 mps 624 mmHg 47%
09:00 +12°C° 0 mm 4 mps 625 mmHg 39%
10:00 +15°C° 0 mm 5 mps 625 mmHg 32%
11:00 +19°C° 0 mm 4 mps 625 mmHg 27%
12:00 +21°C° 0 mm 4 mps 625 mmHg 23%
13:00 +23°C° 0 mm 4 mps 625 mmHg 19%
14:00 +23°C° 0 mm 4 mps 624 mmHg 17%
15:00 +24°C° 0 mm 3 mps 624 mmHg 16%
16:00 +24°C° 0 mm 3 mps 623 mmHg 15%
17:00 +19°C° 0 mm 2 mps 623 mmHg 19%
18:00 +16°C° 0 mm 2 mps 622 mmHg 24%
19:00 +12°C° 0 mm 1 mps 622 mmHg 29%
20:00 +12°C° 0 mm 1 mps 622 mmHg 32%
21:00 +11°C° 0 mm 1 mps 622 mmHg 35%
22:00 +10°C° 0 mm 1 mps 622 mmHg 37%
23:00 +9°C° 0 mm 1 mps 622 mmHg 41%

19 July, Sunday

Time Temperature Precipitation Wind Pressure Humidity
00:00 +8°C° 0 mm 1 mps 622 mmHg 45%
01:00 +7°C° 0 mm 1 mps 621 mmHg 49%
02:00 +7°C° 0 mm 1 mps 621 mmHg 52%
03:00 +6°C° 0 mm 1 mps 621 mmHg 54%
04:00 +6°C° 0 mm 1 mps 621 mmHg 57%
05:00 +7°C° 0 mm 1 mps 621 mmHg 56%
06:00 +7°C° 0 mm 1 mps 622 mmHg 54%
07:00 +8°C° 0 mm 1 mps 623 mmHg 53%
08:00 +12°C° 0 mm 2 mps 623 mmHg 45%
09:00 +14°C° 0 mm 3 mps 624 mmHg 37%
10:00 +17°C° 0 mm 5 mps 625 mmHg 29%
11:00 +20°C° 0 mm 4 mps 625 mmHg 26%
12:00 +22°C° 0 mm 3 mps 625 mmHg 22%
13:00 +24°C° 0 mm 3 mps 624 mmHg 18%
14:00 +24°C° 0 mm 3 mps 624 mmHg 17%
15:00 +24°C° 0 mm 3 mps 624 mmHg 17%
16:00 +25°C° 0 mm 3 mps 623 mmHg 16%
17:00 +20°C° 0 mm 2 mps 622 mmHg 21%
18:00 +17°C° 0 mm 2 mps 622 mmHg 26%
19:00 +14°C° 0 mm 1 mps 621 mmHg 30%
20:00 +13°C° 0 mm 1 mps 621 mmHg 32%
21:00 +12°C° 0 mm 1 mps 622 mmHg 34%
22:00 +12°C° 0 mm 1 mps 622 mmHg 36%
23:00 +11°C° 0 mm 1 mps 622 mmHg 39%

20 July, Monday

Time Temperature Precipitation Wind Pressure Humidity
00:00 +10°C° 0 mm 1 mps 621 mmHg 42%
01:00 +9°C° 0 mm 1 mps 621 mmHg 45%
02:00 +9°C° 0 mm 1 mps 621 mmHg 47%
03:00 +8°C° 0 mm 1 mps 621 mmHg 49%
04:00 +8°C° 0 mm 1 mps 621 mmHg 51%
05:00 +8°C° 0 mm 1 mps 621 mmHg 50%
06:00 +8°C° 0 mm 1 mps 622 mmHg 49%
07:00 +8°C° 0 mm 2 mps 622 mmHg 48%
08:00 +13°C° 0 mm 2 mps 623 mmHg 40%
09:00 +17°C° 0 mm 3 mps 624 mmHg 33%
10:00 +20°C° 0 mm 3 mps 625 mmHg 25%
11:00 +22°C° 0 mm 3 mps 625 mmHg 22%
12:00 +25°C° 0 mm 2 mps 625 mmHg 19%
13:00 +27°C° 0 mm 2 mps 625 mmHg 15%
14:00 +27°C° 0 mm 2 mps 624 mmHg 15%
15:00 +26°C° 0 mm 2 mps 624 mmHg 15%
16:00 +26°C° 0 mm 2 mps 623 mmHg 14%
17:00 +23°C° 0 mm 2 mps 622 mmHg 19%
18:00 +19°C° 0 mm 1 mps 622 mmHg 23%
19:00 +15°C° 0 mm 1 mps 621 mmHg 27%
20:00 +15°C° 0 mm 1 mps 621 mmHg 28%
21:00 +14°C° 0 mm 1 mps 621 mmHg 29%
22:00 +13°C° 0 mm 1 mps 622 mmHg 29%
23:00 +13°C° 0 mm 1 mps 621 mmHg 32%
Show more